sat.trackr.live / text

‹ back to catalog

STARLINK-32796

NORAD 62739 · 2025-014E

PAYLOAD ACTIVE UNKNOWN

§ Identity

Operator
Country
US
Launch date
2025-01-21
Launch site
AFETR
Launch vehicle
Mass (kg)
RCS (m²)

Purposes: comms

External: N2YO · Heavens-Above · Gunter

§ Orbital elements

Epoch: 2026-09-21T00:16:02.063136Z

Period
94.27 min
Inclination
43.0016°
Eccentricity
0.0001476
Mean motion
15.27583482 rev/d
Perigee alt
482.0 km
Apogee alt
484.1 km
Semi-major
6,861.2 km
B*
3.7423e-4
RAAN
130.9399°
Arg perigee
269.6187°
Mean anomaly
90.4496°
Rev number
9,313

§ Raw data

STARLINK-327961 62739U 25014E   26264.01113499  .00010051  00000+0  37423-3 0  99952 62739  43.0016 130.9399 0001476 269.6187  90.4496 15.27583482 93137

JSON: /api/v1/satellites/62739 · /tle

For live sub-satellite position, see the globe view (requires WebGL).

§ Visibility from observer

Set your observer location to see the next 7 days of passes ≥ 10°. The values pass through the URL so the page stays shareable.

No JS? Fill the form by hand. The geolocation button needs JavaScript.